Time,TemperatureF,DewpointF,PressureIn,WindDirection,WindDirectionDegrees,WindSpeedMPH,WindSpeedGustMPH,Humidity,HourlyPrecipIn,Conditions,Clouds,dailyrainin,SoftwareType,DateUTC
2013-01-13 00:03:00,2.0,-2.0,-100.00,NW,320,16.0,21.0,81,0.00,,,0.00,,2013-01-13 06:03:00,
2013-01-13 00:12:00,2.0,-2.0,-100.00,NW,315,14.0,19.0,80,0.00,,,0.00,,2013-01-13 06:12:00,
2013-01-13 00:22:00,2.0,-2.0,-100.00,NW,315,14.0,18.0,81,0.00,,,0.00,,2013-01-13 06:22:00,
2013-01-13 00:32:00,2.0,-2.0,-100.00,NW,315,16.0,19.0,81,0.00,,,0.00,,2013-01-13 06:32:00,
2013-01-13 00:42:00,2.0,-2.0,-100.00,NW,315,16.0,21.0,81,0.00,,,0.00,,2013-01-13 06:42:00,
2013-01-13 00:52:00,2.0,-2.0,-100.00,NW,320,16.0,19.0,82,0.00,,,0.00,,2013-01-13 06:52:00,
2013-01-13 01:02:00,2.0,-2.0,-100.00,NW,320,14.0,20.0,82,0.00,,,0.00,,2013-01-13 07:02:00,
2013-01-13 01:12:00,2.0,-2.0,-100.00,NW,320,13.0,20.0,82,0.00,,,0.00,,2013-01-13 07:12:00,
2013-01-13 01:22:00,2.0,-2.0,-100.00,NW,325,14.0,19.0,82,0.00,,,0.00,,2013-01-13 07:22:00,
2013-01-13 01:32:00,2.0,-2.0,-100.00,NW,320,15.0,21.0,82,0.00,,,0.00,,2013-01-13 07:32:00,
2013-01-13 01:42:00,2.0,-2.0,-100.00,NW,320,14.0,19.0,83,0.00,,,0.00,,2013-01-13 07:42:00,
2013-01-13 01:52:00,2.0,-2.0,-100.00,NW,320,14.0,19.0,84,0.00,,,0.00,,2013-01-13 07:52:00,
2013-01-13 02:02:00,2.0,-2.0,-100.00,NW,325,16.0,19.0,82,0.00,,,0.00,,2013-01-13 08:02:00,
2013-01-13 02:12:00,2.0,-2.0,-100.00,NNW,330,13.0,18.0,81,0.00,,,0.00,,2013-01-13 08:12:00,
2013-01-13 02:22:00,2.0,-2.0,-100.00,NW,325,13.0,17.0,82,0.00,,,0.00,,2013-01-13 08:22:00,
2013-01-13 02:32:00,2.0,-2.0,-100.00,NW,325,13.0,17.0,82,0.00,,,0.00,,2013-01-13 08:32:00,
2013-01-13 02:42:00,2.0,-2.0,-100.00,NW,315,11.0,19.0,82,0.00,,,0.00,,2013-01-13 08:42:00,
2013-01-13 02:52:00,2.0,-2.0,-100.00,NW,315,14.0,17.0,82,0.00,,,0.00,,2013-01-13 08:52:00,
2013-01-13 03:02:00,2.0,-2.0,-100.00,NW,315,12.0,15.0,83,0.00,,,0.00,,2013-01-13 09:02:00,
2013-01-13 03:12:00,1.0,-2.0,-100.00,NW,310,14.0,17.0,84,0.00,,,0.00,,2013-01-13 09:12:00,
2013-01-13 03:22:00,2.0,-2.0,-100.00,NW,305,16.0,19.0,83,0.00,,,0.00,,2013-01-13 09:22:00,
2013-01-13 03:32:00,1.0,-2.0,-100.00,NW,310,15.0,20.0,83,0.00,,,0.00,,2013-01-13 09:32:00,
2013-01-13 03:42:00,2.0,-2.0,-100.00,NW,305,14.0,21.0,84,0.00,,,0.00,,2013-01-13 09:42:00,
2013-01-13 03:52:00,2.0,-2.0,-100.00,NW,320,16.0,21.0,84,0.00,,,0.00,,2013-01-13 09:52:00,
2013-01-13 04:02:00,2.0,-2.0,-100.00,NW,315,20.0,25.0,82,0.00,,,0.00,,2013-01-13 10:02:00,
2013-01-13 04:12:00,2.0,-2.0,-100.00,NW,320,19.0,25.0,83,0.00,,,0.00,,2013-01-13 10:12:00,
2013-01-13 04:22:00,2.0,-2.0,-100.00,NNW,330,16.0,24.0,82,0.00,,,0.00,,2013-01-13 10:22:00,
2013-01-13 04:32:00,2.0,-2.0,-100.00,NW,320,17.0,22.0,82,0.00,,,0.00,,2013-01-13 10:32:00,
2013-01-13 04:42:00,1.0,-2.0,-100.00,NW,320,19.0,24.0,81,0.00,,,0.00,,2013-01-13 10:42:00,
2013-01-13 04:52:00,1.0,-4.0,-100.00,NW,320,18.0,22.0,81,0.00,,,0.00,,2013-01-13 10:52:00,
2013-01-13 05:02:00,1.0,-2.0,-100.00,NW,325,18.0,24.0,82,0.00,,,0.00,,2013-01-13 11:02:00,
2013-01-13 05:12:00,1.0,-4.0,-100.00,NNW,335,18.0,22.0,82,0.00,,,0.00,,2013-01-13 11:12:00,
2013-01-13 05:22:00,1.0,-2.0,-100.00,NW,320,15.0,24.0,83,0.00,,,0.00,,2013-01-13 11:22:00,
2013-01-13 05:32:00,1.0,-4.0,-100.00,NW,315,17.0,24.0,83,0.00,,,0.00,,2013-01-13 11:32:00,
2013-01-13 05:42:00,0.0,-4.0,-100.00,NW,320,17.0,22.0,82,0.00,,,0.00,,2013-01-13 11:42:00,
2013-01-13 05:52:00,0.0,-4.0,-100.00,NW,315,16.0,24.0,83,0.00,,,0.00,,2013-01-13 11:52:00,
2013-01-13 06:03:00,1.0,-4.0,-100.00,NW,320,14.0,24.0,83,0.00,,,0.00,,2013-01-13 12:03:00,
2013-01-13 06:12:00,0.0,-4.0,-100.00,NNW,330,18.0,24.0,81,0.00,,,0.00,,2013-01-13 12:12:00,
2013-01-13 06:22:00,0.0,-4.0,-100.00,NW,325,15.0,21.0,82,0.00,,,0.00,,2013-01-13 12:22:00,
2013-01-13 06:33:00,1.0,-4.0,-100.00,NW,320,18.0,23.0,81,0.00,,,0.00,,2013-01-13 12:33:00,
2013-01-13 06:42:00,1.0,-4.0,-100.00,NW,325,16.0,24.0,80,0.00,,,0.00,,2013-01-13 12:42:00,
2013-01-13 06:52:00,1.0,-4.0,-100.00,NNW,330,16.0,21.0,79,0.00,,,0.00,,2013-01-13 12:52:00,
2013-01-13 07:03:00,1.0,-4.0,-100.00,NW,320,17.0,24.0,79,0.00,,,0.00,,2013-01-13 13:03:00,
2013-01-13 07:12:00,0.0,-4.0,-100.00,NNW,330,18.0,24.0,78,0.00,,,0.00,,2013-01-13 13:12:00,
2013-01-13 07:22:00,0.0,-4.0,-100.00,NNW,340,14.0,21.0,80,0.00,,,0.00,,2013-01-13 13:22:00,
2013-01-13 07:33:00,1.0,-4.0,-100.00,NNW,335,14.0,20.0,81,0.00,,,0.00,,2013-01-13 13:33:00,
2013-01-13 07:42:00,1.0,-4.0,-100.00,NNW,335,15.0,22.0,79,0.00,,,0.00,,2013-01-13 13:42:00,
2013-01-13 07:53:00,1.0,-4.0,-100.00,NNW,330,17.0,21.0,78,0.00,,,0.00,,2013-01-13 13:53:00,
2013-01-13 08:03:00,1.0,-4.0,-100.00,NW,315,14.0,20.0,80,0.00,,,0.00,,2013-01-13 14:03:00,
2013-01-13 08:12:00,1.0,-4.0,-100.00,NNW,335,14.0,20.0,79,0.00,,,0.00,,2013-01-13 14:12:00,
2013-01-13 08:22:00,1.0,-4.0,-100.00,NW,325,14.0,18.0,79,0.00,,,0.00,,2013-01-13 14:22:00,
2013-01-13 08:33:00,1.0,-4.0,-100.00,NNW,330,14.0,20.0,79,0.00,,,0.00,,2013-01-13 14:33:00,
2013-01-13 08:43:00,1.0,-4.0,-100.00,NW,320,13.0,18.0,79,0.00,,,0.00,,2013-01-13 14:43:00,
2013-01-13 08:52:00,1.0,-4.0,-100.00,NW,320,14.0,17.0,79,0.00,,,0.00,,2013-01-13 14:52:00,
2013-01-13 09:03:00,1.0,-4.0,-100.00,NNW,330,12.0,15.0,80,0.00,,,0.00,,2013-01-13 15:03:00,
2013-01-13 09:12:00,1.0,-4.0,-100.00,NW,320,15.0,18.0,79,0.00,,,0.00,,2013-01-13 15:12:00,
2013-01-13 09:23:00,1.0,-4.0,-100.00,NW,320,13.0,17.0,79,0.00,,,0.00,,2013-01-13 15:23:00,
2013-01-13 09:33:00,1.0,-4.0,-100.00,NW,315,13.0,17.0,79,0.00,,,0.00,,2013-01-13 15:33:00,
2013-01-13 09:43:00,1.0,-4.0,-100.00,NW,315,14.0,17.0,79,0.00,,,0.00,,2013-01-13 15:43:00,
2013-01-13 09:52:00,1.0,-4.0,-100.00,NW,315,12.0,17.0,79,0.00,,,0.00,,2013-01-13 15:52:00,
2013-01-13 10:03:00,1.0,-4.0,-100.00,NW,325,14.0,19.0,78,0.00,,,0.00,,2013-01-13 16:03:00,
2013-01-13 10:12:00,2.0,-4.0,-100.00,NNW,335,11.0,16.0,78,0.00,,,0.00,,2013-01-13 16:12:00,
2013-01-13 10:23:00,2.0,-2.0,-100.00,NW,320,12.0,17.0,79,0.00,,,0.00,,2013-01-13 16:23:00,
2013-01-13 10:33:00,2.0,-4.0,-100.00,NW,310,13.0,17.0,78,0.00,,,0.00,,2013-01-13 16:33:00,
2013-01-13 10:43:00,2.0,-4.0,-100.00,NW,320,14.0,18.0,77,0.00,,,0.00,,2013-01-13 16:43:00,
2013-01-13 10:53:00,2.0,-4.0,-100.00,NW,310,16.0,19.0,77,0.00,,,0.00,,2013-01-13 16:53:00,
2013-01-13 11:03:00,3.0,-2.0,-100.00,NW,320,12.0,17.0,78,0.00,,,0.00,,2013-01-13 17:03:00,
2013-01-13 11:12:00,3.0,-2.0,-100.00,WNW,300,17.0,20.0,78,0.00,,,0.00,,2013-01-13 17:12:00,
2013-01-13 11:22:00,4.0,-2.0,-100.00,WNW,295,15.0,20.0,79,0.00,,,0.00,,2013-01-13 17:22:00,
2013-01-13 11:33:00,4.0,-2.0,-100.00,NW,305,15.0,19.0,78,0.00,,,0.00,,2013-01-13 17:33:00,
2013-01-13 11:42:00,4.0,-2.0,-100.00,NW,310,17.0,21.0,77,0.00,,,0.00,,2013-01-13 17:42:00,
2013-01-13 11:53:00,4.0,-2.0,-100.00,NW,310,16.0,20.0,77,0.00,,,0.00,,2013-01-13 17:53:00,
2013-01-13 12:03:00,5.0,0.0,-100.00,NW,305,16.0,20.0,78,0.00,,,0.00,,2013-01-13 18:03:00,
2013-01-13 12:12:00,5.0,0.0,-100.00,NW,310,14.0,20.0,77,0.00,,,0.00,,2013-01-13 18:12:00,
2013-01-13 12:23:00,6.0,0.0,-100.00,WNW,295,16.0,21.0,77,0.00,,,0.00,,2013-01-13 18:23:00,
2013-01-13 12:33:00,6.0,0.0,-100.00,NW,310,16.0,23.0,77,0.00,,,0.00,,2013-01-13 18:33:00,
2013-01-13 12:43:00,5.0,0.0,-100.00,NW,315,17.0,22.0,75,0.00,,,0.00,,2013-01-13 18:43:00,
2013-01-13 12:53:00,6.0,0.0,-100.00,NW,310,17.0,21.0,74,0.00,,,0.00,,2013-01-13 18:53:00,
2013-01-13 13:03:00,6.0,0.0,-100.00,WNW,300,18.0,21.0,74,0.00,,,0.00,,2013-01-13 19:03:00,
2013-01-13 13:12:00,7.0,0.0,-100.00,NW,310,16.0,21.0,73,0.00,,,0.00,,2013-01-13 19:12:00,
2013-01-13 13:22:00,7.0,0.0,-100.00,WNW,300,16.0,20.0,71,0.00,,,0.00,,2013-01-13 19:22:00,
2013-01-13 13:33:00,7.0,0.0,-100.00,NW,305,16.0,19.0,69,0.00,,,0.00,,2013-01-13 19:33:00,
2013-01-13 13:43:00,7.0,-2.0,-100.00,WNW,295,16.0,21.0,65,0.00,,,0.00,,2013-01-13 19:43:00,
2013-01-13 13:52:00,7.0,-2.0,-100.00,WNW,300,17.0,19.0,64,0.00,,,0.00,,2013-01-13 19:52:00,
2013-01-13 14:03:00,7.0,-2.0,-100.00,NW,310,16.0,19.0,63,0.00,,,0.00,,2013-01-13 20:03:00,
2013-01-13 14:12:00,8.0,-2.0,-100.00,NW,305,16.0,18.0,65,0.00,,,0.00,,2013-01-13 20:12:00,
2013-01-13 14:22:00,8.0,-2.0,-100.00,WNW,290,14.0,19.0,63,0.00,,,0.00,,2013-01-13 20:22:00,
2013-01-13 14:33:00,8.0,-2.0,-100.00,WNW,300,19.0,22.0,60,0.00,,,0.00,,2013-01-13 20:33:00,
2013-01-13 14:43:00,9.0,-2.0,-100.00,NW,310,16.0,19.0,59,0.00,,,0.00,,2013-01-13 20:43:00,
2013-01-13 14:53:00,9.0,-2.0,-100.00,NW,310,16.0,22.0,56,0.00,,,0.00,,2013-01-13 20:53:00,
2013-01-13 15:03:00,9.0,-2.0,-100.00,WNW,300,17.0,20.0,59,0.00,,,0.00,,2013-01-13 21:03:00,
2013-01-13 15:12:00,9.0,-4.0,-100.00,WNW,300,17.0,22.0,57,0.00,,,0.00,,2013-01-13 21:12:00,
2013-01-13 15:23:00,10.0,-2.0,-100.00,NW,305,14.0,19.0,57,0.00,,,0.00,,2013-01-13 21:23:00,
2013-01-13 15:33:00,10.0,0.0,-100.00,NW,310,13.0,17.0,60,0.00,,,0.00,,2013-01-13 21:33:00,
2013-01-13 15:43:00,10.0,0.0,-100.00,WNW,300,12.0,17.0,63,0.00,,,0.00,,2013-01-13 21:43:00,
2013-01-13 15:52:00,10.0,0.0,-100.00,WNW,290,11.0,17.0,62,0.00,,,0.00,,2013-01-13 21:52:00,
2013-01-13 16:02:00,10.0,0.0,-100.00,WNW,300,11.0,17.0,62,0.00,,,0.00,,2013-01-13 22:02:00,
2013-01-13 16:12:00,10.0,1.0,-100.00,WNW,290,14.0,17.0,65,0.00,,,0.00,,2013-01-13 22:12:00,
2013-01-13 16:22:00,10.0,1.0,-100.00,WNW,290,12.0,17.0,66,0.00,,,0.00,,2013-01-13 22:22:00,
2013-01-13 16:33:00,10.0,1.0,-100.00,WNW,295,13.0,17.0,66,0.00,,,0.00,,2013-01-13 22:33:00,
2013-01-13 16:43:00,9.0,0.0,-100.00,WNW,295,14.0,17.0,65,0.00,,,0.00,,2013-01-13 22:43:00,
2013-01-13 16:52:00,9.0,0.0,-100.00,WNW,300,12.0,16.0,65,0.00,,,0.00,,2013-01-13 22:52:00,
2013-01-13 17:02:00,9.0,0.0,-100.00,WNW,300,10.0,16.0,65,0.00,,,0.00,,2013-01-13 23:02:00,
2013-01-13 17:12:00,9.0,0.0,-100.00,WNW,300,12.0,16.0,63,0.00,,,0.00,,2013-01-13 23:12:00,
2013-01-13 17:23:00,9.0,0.0,-100.00,WNW,300,10.0,16.0,64,0.00,,,0.00,,2013-01-13 23:23:00,
2013-01-13 17:33:00,9.0,0.0,-100.00,WNW,295,7.0,12.0,67,0.00,,,0.00,,2013-01-13 23:33:00,
2013-01-13 17:42:00,9.0,1.0,-100.00,WNW,290,8.0,11.0,69,0.00,,,0.00,,2013-01-13 23:42:00,
2013-01-13 17:52:00,9.0,1.0,-100.00,WNW,285,9.0,10.0,70,0.00,,,0.00,,2013-01-13 23:52:00,
2013-01-13 18:03:00,9.0,1.0,-100.00,WNW,285,7.0,9.0,71,0.00,,,0.00,,2013-01-14 00:03:00,
2013-01-13 18:12:00,9.0,1.0,-100.00,WNW,290,8.0,11.0,72,0.00,,,0.00,,2013-01-14 00:12:00,
2013-01-13 18:22:00,8.0,1.0,-100.00,WNW,290,8.0,10.0,74,0.00,,,0.00,,2013-01-14 00:22:00,
2013-01-13 18:33:00,8.0,1.0,-100.00,West,280,8.0,10.0,74,0.00,,,0.00,,2013-01-14 00:33:00,
2013-01-13 18:43:00,9.0,1.0,-100.00,West,280,11.0,12.0,74,0.00,,,0.00,,2013-01-14 00:43:00,
2013-01-13 18:52:00,8.0,1.0,-100.00,WNW,285,10.0,12.0,76,0.00,,,0.00,,2013-01-14 00:52:00,
2013-01-13 19:03:00,8.0,1.0,-100.00,West,275,10.0,12.0,75,0.00,,,0.00,,2013-01-14 01:03:00,
2013-01-13 19:12:00,8.0,1.0,-100.00,West,275,9.0,12.0,76,0.00,,,0.00,,2013-01-14 01:12:00,
2013-01-13 19:22:00,8.0,3.0,-100.00,West,275,10.0,11.0,78,0.00,,,0.00,,2013-01-14 01:22:00,
2013-01-13 19:32:00,8.0,3.0,-100.00,West,280,10.0,12.0,78,0.00,,,0.00,,2013-01-14 01:32:00,
2013-01-13 19:42:00,8.0,3.0,-100.00,West,280,11.0,12.0,79,0.00,,,0.00,,2013-01-14 01:42:00,
2013-01-13 19:52:00,8.0,3.0,-100.00,West,275,11.0,12.0,80,0.00,,,0.00,,2013-01-14 01:52:00,
2013-01-13 20:03:00,8.0,3.0,-100.00,West,270,11.0,12.0,80,0.00,,,0.00,,2013-01-14 02:03:00,
2013-01-13 20:12:00,7.0,3.0,-100.00,West,265,11.0,12.0,81,0.00,,,0.00,,2013-01-14 02:12:00,
2013-01-13 20:22:00,8.0,3.0,-100.00,West,260,11.0,13.0,80,0.00,,,0.00,,2013-01-14 02:22:00,
2013-01-13 20:32:00,8.0,3.0,-100.00,WSW,255,11.0,14.0,79,0.00,,,0.00,,2013-01-14 02:32:00,
2013-01-13 20:42:00,8.0,3.0,-100.00,West,260,11.0,15.0,79,0.00,,,0.00,,2013-01-14 02:42:00,
2013-01-13 20:53:00,7.0,3.0,-100.00,West,270,11.0,13.0,80,0.00,,,0.00,,2013-01-14 02:53:00,
2013-01-13 21:02:00,7.0,3.0,-100.00,West,265,11.0,12.0,80,0.00,,,0.00,,2013-01-14 03:02:00,
2013-01-13 21:12:00,7.0,3.0,-100.00,West,265,11.0,12.0,80,0.00,,,0.00,,2013-01-14 03:12:00,
2013-01-13 21:22:00,8.0,3.0,-100.00,West,260,12.0,14.0,79,0.00,,,0.00,,2013-01-14 03:22:00,
2013-01-13 21:32:00,8.0,3.0,-100.00,West,260,12.0,14.0,78,0.00,,,0.00,,2013-01-14 03:32:00,
2013-01-13 21:42:00,8.0,3.0,-100.00,WSW,250,12.0,16.0,77,0.00,,,0.00,,2013-01-14 03:42:00,
2013-01-13 21:52:00,8.0,3.0,-100.00,WSW,255,12.0,15.0,77,0.00,,,0.00,,2013-01-14 03:52:00,
2013-01-13 22:02:00,8.0,3.0,-100.00,WSW,255,12.0,16.0,77,0.00,,,0.00,,2013-01-14 04:02:00,
2013-01-13 22:12:00,8.0,1.0,-100.00,WSW,250,12.0,16.0,76,0.00,,,0.00,,2013-01-14 04:12:00,
2013-01-13 22:22:00,7.0,1.0,-100.00,WSW,245,9.0,13.0,79,0.00,,,0.00,,2013-01-14 04:22:00,
2013-01-13 22:32:00,8.0,3.0,-100.00,WSW,255,11.0,12.0,77,0.00,,,0.00,,2013-01-14 04:32:00,
2013-01-13 22:42:00,8.0,1.0,-100.00,WSW,255,12.0,15.0,77,0.00,,,0.00,,2013-01-14 04:42:00,
2013-01-13 22:52:00,8.0,3.0,-100.00,WSW,255,11.0,15.0,78,0.00,,,0.00,,2013-01-14 04:52:00,
2013-01-13 23:04:00,8.0,3.0,-100.00,West,265,11.0,14.0,77,0.00,,,0.00,,2013-01-14 05:04:00,
2013-01-13 23:12:00,8.0,3.0,-100.00,West,265,12.0,15.0,77,0.00,,,0.00,,2013-01-14 05:12:00,
2013-01-13 23:22:00,8.0,3.0,-100.00,West,260,12.0,16.0,78,0.00,,,0.00,,2013-01-14 05:22:00,
2013-01-13 23:33:00,8.0,3.0,-100.00,West,265,13.0,16.0,78,0.00,,,0.00,,2013-01-14 05:33:00,
2013-01-13 23:42:00,7.0,3.0,-100.00,West,265,13.0,16.0,80,0.00,,,0.00,,2013-01-14 05:42:00,
2013-01-13 23:52:00,7.0,3.0,-100.00,West,270,12.0,16.0,81,0.00,,,0.00,,2013-01-14 05:52:00,